"Pseudo-MPEC" for C0620F2

Created 2019 Feb 13 4:18:21 UT using Find_Orb

Click here for an explanation of pseudo-MPECs

 
 Astrometry: 
     C0620F2  C2019 02 08.43735 12 40 57.15 +23 18 16.9    ~28BX 21.1 GVNEOCPG96
     C0620F2  C2019 02 08.44251 12 40 57.90 +23 18 14.0    ~28BX 21.8 GVNEOCPG96
     C0620F2  C2019 02 08.44767 12 40 58.67 +23 18 11.1    ~28BX 20.7 GVNEOCPG96
     C0620F2  C2019 02 08.45285 12 40 59.41 +23 18 09.4    ~28BX 21.1 GVNEOCPG96
     C0620F2  C2019 02 08.52271 12 41 09.72 +23 17 32.9    ~28DI 21.0 GVNEOCPI52
     C0620F2  C2019 02 08.52605 12 41 10.23 +23 17 31.0    ~28DI 21.1 GVNEOCPI52
     C0620F2  C2019 02 08.52938 12 41 10.73 +23 17 29.4    ~28DI 21.5 GVNEOCPI52
     C0620F2 pC2019 02 08iiy6[242Ya=Astrometry$._x3J4CPtsQp7a9kRt#f`sF=ZcAh#HL01
     C0620F2 KC2019 02 08ZD'Tuyredacted;$g`=Xlk[YQ/Yniv62y8SD068K]w%Xv)y7FW)kL01
     C0620F2 KC2019 02 08EL'W%sdI)UbEEC_WshW0hhnY5d!7`l7fMHkF3;OB#uHr-YEOjV=YL01
     C0620F2 pC2019 02 09(RQn%y:LfU!.2P0hHqGnFl$=%\GsJS3-+U0oclick\^J8G6hW$k)L01
     C0620F2  C2019 02 11wSnJW!8d,V@qN5-g:E4*4E/%NirXaiY8BMbS)518`_MnLA9:L'`5V06
     C0620F2  C2019 02 11GYWCa?wjtoY+-here@D4hqV'e\/KqI:O(nn)NKM5D$Ys8#2:MJ(8V06
     C0620F2  C2019 02 12`vLTTY-C$ev^;'2(O]dACU+U#=oDJZx)ABa,x^D98bAnt#w1g/vJV06
     C0620F2  C2019 02 12]3A.:(:8@^,X'Lufor*I`qhoGl3F3!S^gKYve6W\Oc;ODg$N7?yYV06
     C0620F2  C2019 02 12#GE;4pOd5kUmM*0h3U0l]!1]Zy]+!*wX+CNtm#^)n9PAw:d1ot#-V06
     C0620F2  C2019 02 12nifk!K4OE\R*eFwexplanation;BuU,,%Zcf/Q0k2a1Wc]F8((kfV06

Station data:
(G96) Mt. Lemmon Survey  (N32.442754 W110.788720)  US/Arizona.  Observers B.
   M. Africano, E. J. Christensen, G. A. Farneth, D. C. Fuls, A. R. Gibbs, A.
   D. Grauer, H. Groeller, J. A. Johnson, R. A. Kowalski, S. M. Larson, G. J.
   Leonard, R. L. Seaman, F. C. Shelly. 1.5-m reflector + 10K CCD.
(I52) Steward Observatory, Mt. Lemmon Station  (N32.442547 W110.788920)
   US/Arizona.  Observers B. M. Africano, E. J. Christensen, G. A. Farneth,
   D. C. Fuls, A. R. Gibbs, A. D. Grauer, H. Groeller, J. A. Johnson, R. A.
   Kowalski, S. M. Larson, G. J. Leonard, R. L. Seaman, F. C. Shelly. 1.0-m
   reflector + CCD.
(L01) Višnjan Observatory, Tičan  (N45.290900 E13.749300)  Croatia.
   Observers K. Korlević, E. Pettarin. Measurer E. Pettarin. 1.0-m f/2.9
   reflector + CCD.
(V06) Catalina Sky Survey-Kuiper  (N32.416847 W110.732550)  US/Arizona.
   Observers B. M. Africano, E. J. Christensen, G. A. Farneth, D. C. Fuls, A.
   R. Gibbs, A. D. Grauer, H. Groeller, J. A. Johnson, R. A. Kowalski, S. M.
   Larson, G. J. Leonard, R. L. Seaman, F. C. Shelly. 1.55-m reflector + CCD.

Orbital elements:  C0620F2
   Perihelion 2019 Mar 9.290578 +/- 0.329 TT =  6:58:26 (JD 2458551.790578)
Epoch 2019 Feb 12.0 TT = JDT 2458526.5   Earth MOID: 0.2476   Ma: 0.0582
M 352.87095738 +/- 0.36             (J2000 ecliptic)          AutoNEOCP
n   0.28188531 +/- 0.0113           Peri.  133.25562 +/- 0.7
a   2.30367432 +/- 0.0614           Node    40.34876 +/- 0.51
e   0.4687870 +/- 0.0121            Incl.    7.38552 +/- 0.07
P   3.50                   H 21.8   G  0.15   U  9.7  
q 1.22374171 +/- 0.0049    Q 3.38360694 +/- 0.123
From 17 observations 2019 Feb. 8-12; mean residual 0".17
Residuals in arcseconds: 
190208 G96  .10+  .32+    190208 I52  .11+  .11-    190211 V06  .02-  .11-    
190208 G96  .04-  .02-    190208 L01  .10+  .09+    190212 V06  .07-  .02-    
190208 G96  .09+  .35-    190208 L01  .13+  .13+    190212 V06  .16+  .10-    
190208 G96  .23-  .55+    190208 L01  .09-  .14-    190212 V06  .11-  .27+    
190208 I52  .19-  .11-    190209 L01  .08+  .03+    190212 V06  .14+  .01+    
190208 I52  .02+  .26-    190211 V06  .17-  .09-    

Ephemerides (geocentric):
Date (UTC) HH   RA              Dec         delta   r     elong  mag " sig PA
---- -- -- --  -------------   -----------  ------ ------ -----  --- ---- ---
2019 02 13 04  12 53 00.846   +22 34 22.65  .34084 1.2502 134.6 21.4 .275 175
2019 02 13 05  12 53 07.055   +22 33 56.90  .34068 1.2501 134.6 21.4 .295 174
2019 02 13 06  12 53 13.261   +22 33 31.11  .34053 1.2500 134.6 21.4 .315 172
2019 02 13 07  12 53 19.465   +22 33 05.27  .34037 1.2499 134.6 21.4 .337 171
2019 02 13 08  12 53 25.665   +22 32 39.38  .34021 1.2498 134.6 21.4 .359 169
2019 02 13 09  12 53 31.861   +22 32 13.45  .34006 1.2498 134.6 21.4 .381 168
2019 02 13 10  12 53 38.055   +22 31 47.47  .33990 1.2497 134.6 21.4 .404 167
2019 02 13 11  12 53 44.245   +22 31 21.44  .33974 1.2496 134.6 21.4 .427 166
2019 02 13 12  12 53 50.433   +22 30 55.37  .33959 1.2495 134.6 21.4 .451 165
2019 02 13 13  12 53 56.617   +22 30 29.26  .33943 1.2494 134.6 21.4 .475 164
2019 02 13 14  12 54 02.798   +22 30 03.10  .33928 1.2493 134.7 21.4 .500 164
2019 02 13 15  12 54 08.975   +22 29 36.89  .33912 1.2492 134.7 21.4 .526 163
2019 02 13 16  12 54 15.150   +22 29 10.63  .33896 1.2491 134.7 21.4 .551 162
2019 02 13 17  12 54 21.321   +22 28 44.33  .33881 1.2490 134.7 21.4 .578 162
2019 02 13 18  12 54 27.489   +22 28 17.99  .33865 1.2490 134.7 21.4 .604 161
2019 02 13 19  12 54 33.654   +22 27 51.59  .33850 1.2489 134.7 21.4 .632 161
2019 02 13 20  12 54 39.815   +22 27 25.15  .33834 1.2488 134.7 21.4 .659 160
2019 02 13 21  12 54 45.973   +22 26 58.67  .33819 1.2487 134.7 21.4 .687 160
2019 02 13 22  12 54 52.129   +22 26 32.13  .33804 1.2486 134.7 21.4 .716 159
2019 02 13 23  12 54 58.280   +22 26 05.55  .33788 1.2485 134.7 21.4 .745 159
2019 02 14 00  12 55 04.429   +22 25 38.93  .33773 1.2484 134.8 21.4 .774 159
2019 02 14 01  12 55 10.574   +22 25 12.26  .33757 1.2484 134.8 21.4 .804 158
2019 02 14 02  12 55 16.716   +22 24 45.54  .33742 1.2483 134.8 21.4 .834 158
2019 02 14 03  12 55 22.855   +22 24 18.77  .33727 1.2482 134.8 21.4 .865 158
2019 02 14 04  12 55 28.990   +22 23 51.96  .33711 1.2481 134.8 21.4 .896 157
2019 02 14 05  12 55 35.123   +22 23 25.10  .33696 1.2480 134.8 21.4 .928 157
2019 02 14 06  12 55 41.251   +22 22 58.19  .33681 1.2479 134.8 21.4 .960 157
2019 02 14 07  12 55 47.377   +22 22 31.24  .33665 1.2478 134.8 21.4 0.99 157
2019 02 14 08  12 55 53.499   +22 22 04.24  .33650 1.2477 134.8 21.4 1.03 156
2019 02 14 09  12 55 59.618   +22 21 37.19  .33635 1.2477 134.8 21.4 1.06 156
2019 02 14 10  12 56 05.734   +22 21 10.10  .33619 1.2476 134.9 21.4 1.09 156
2019 02 14 11  12 56 11.846   +22 20 42.96  .33604 1.2475 134.9 21.4 1.13 156
2019 02 14 12  12 56 17.955   +22 20 15.77  .33589 1.2474 134.9 21.4 1.16 155
2019 02 14 13  12 56 24.061   +22 19 48.54  .33574 1.2473 134.9 21.4 1.20 155
2019 02 14 14  12 56 30.163   +22 19 21.25  .33559 1.2472 134.9 21.4 1.23 155
2019 02 14 15  12 56 36.262   +22 18 53.92  .33543 1.2472 134.9 21.4 1.27 155
2019 02 14 16  12 56 42.358   +22 18 26.55  .33528 1.2471 134.9 21.4 1.30 155
2019 02 14 17  12 56 48.450   +22 17 59.12  .33513 1.2470 134.9 21.4 1.34 155
2019 02 14 18  12 56 54.539   +22 17 31.65  .33498 1.2469 134.9 21.4 1.38 154
2019 02 14 19  12 57 00.625   +22 17 04.13  .33483 1.2468 134.9 21.4 1.42 154
2019 02 14 20  12 57 06.707   +22 16 36.57  .33468 1.2467 135.0 21.4 1.46 154
2019 02 14 21  12 57 12.786   +22 16 08.95  .33453 1.2466 135.0 21.4 1.49 154
2019 02 14 22  12 57 18.861   +22 15 41.29  .33438 1.2466 135.0 21.4 1.53 154
2019 02 14 23  12 57 24.933   +22 15 13.58  .33423 1.2465 135.0 21.4 1.57 154
2019 02 15 00  12 57 31.002   +22 14 45.83  .33408 1.2464 135.0 21.3 1.61 154
2019 02 15 01  12 57 37.067   +22 14 18.02  .33393 1.2463 135.0 21.3 1.65 154
2019 02 15 02  12 57 43.129   +22 13 50.17  .33378 1.2462 135.0 21.3 1.70 153
2019 02 15 03  12 57 49.187   +22 13 22.27  .33363 1.2461 135.0 21.3 1.74 153